Location: Pisa
(43.7170°N, 10.3830°E)
Time: 04:37:02
(UTC+02:00)

ISS - Pass Details

Date: 13 May 2021
Orbit: 417 x 422 km, 51.6° (Epoch: 21 June)

Event Time Altitude Azimuth Distance (km) Brightness Sun altitude
Exits shadow 03:37:07 - 302° (WNW) 2,412 0.1 -19.9°
Rises 03:37:13 0° 302° (WNW) 2,374 0.0 -19.8°
Reaches altitude 10° 03:39:30 10° 314° (NW) 1,509 -0.9 -19.6°
Maximum altitude 03:42:30 29° 17° (NNE) 810 -1.7 -19.3°
Drops below altitude 10° 03:45:31 10° 79° (E) 1,507 -0.3 -18.9°
Sets 03:47:47 0° 91° (E) 2,371 0.6 -18.7°
